FLOCK 4V-20 (46612 NORAD) Tracking and Keplerian Element Data

This shows tracking and keplerian element data for the satellite.

Feedback or suggestion? Click here.




ElementValue
Catalog46612
NameFLOCK 4V-20
Epoch Orbit249
Epoch Day303.08478607
Epoch Year2020
RAAN15.1783
Inclination97.4688
Eccentricity0.0009264
Argument of Perigee52.4257
Mean Anonmoly307.7815
Mean Motion15.14752952
Decay Rate6.64E-06
L11 46612U 20061BJ 20303.08478607 .00000664 00000-0 39293-4 0 9992
L22 46612 97.4688 15.1783 0009264 52.4257 307.7815 15.14752952 2491

Live tracking and technical data element details for FLOCK 4V-20 (NORAD 46612). FLOCK 4V-20 can be tracked NOW for your location showing map with azimuth and elevation plus other details from your city location.

Track the satellite on the map from your city or location and see movement details for azimuth, elevation, latitude, longitude, range, height, and movement on the map or in text.







IsCatalogInMostPopularTable: catalog: 46612, numindb: 2
Update: records affected: 1



GetName: 46612 FLOCK 4V-20

Hit Count: updated at: Fri, 30 Oct 2020 00:53:17 GMT